Year,Month,Day,Hour,Minute,Value (Times are PST for temperature in C)
2006,06,26,00,00,19.70
2006,06,26,00,01,19.70
2006,06,26,00,02,19.70
2006,06,26,00,03,19.70
2006,06,26,00,04,19.70
2006,06,26,00,05,19.60
2006,06,26,00,06,19.60
2006,06,26,00,07,19.60
2006,06,26,00,08,19.60
2006,06,26,00,09,19.50
2006,06,26,00,10,19.50
2006,06,26,00,11,19.50
2006,06,26,00,12,19.40
2006,06,26,00,13,19.40
2006,06,26,00,14,19.40
2006,06,26,00,15,19.40
2006,06,26,00,16,19.40
2006,06,26,00,17,19.40
2006,06,26,00,18,19.30
2006,06,26,00,19,19.30
2006,06,26,00,20,19.30
2006,06,26,00,21,19.30
2006,06,26,00,22,19.20
2006,06,26,00,23,19.20
2006,06,26,00,24,19.20
2006,06,26,00,25,19.30
2006,06,26,00,26,19.30
2006,06,26,00,27,19.30
2006,06,26,00,28,19.30
2006,06,26,00,29,19.30
2006,06,26,00,30,19.30
2006,06,26,00,31,19.30
2006,06,26,00,32,19.20
2006,06,26,00,33,19.20
2006,06,26,00,34,19.20
2006,06,26,00,35,19.20
2006,06,26,00,36,19.20
2006,06,26,00,37,19.20
2006,06,26,00,38,19.10
2006,06,26,00,39,19.10
2006,06,26,00,40,19.10
2006,06,26,00,41,19.10
2006,06,26,00,42,19.10
2006,06,26,00,43,19.10
2006,06,26,00,44,19.00
2006,06,26,00,45,18.90
2006,06,26,00,46,18.90
2006,06,26,00,47,18.90
2006,06,26,00,48,18.90
2006,06,26,00,49,18.90
2006,06,26,00,50,18.80
2006,06,26,00,51,18.80
2006,06,26,00,52,18.80
2006,06,26,00,53,18.80
2006,06,26,00,54,18.80
2006,06,26,00,55,18.70
2006,06,26,00,56,18.70
2006,06,26,00,57,18.70
2006,06,26,00,58,18.70
2006,06,26,00,59,18.70
2006,06,26,01,00,18.60
2006,06,26,01,01,18.60
2006,06,26,01,02,18.60
2006,06,26,01,03,18.50
2006,06,26,01,04,18.50
2006,06,26,01,05,18.50
2006,06,26,01,06,18.50
2006,06,26,01,07,18.50
2006,06,26,01,08,18.40
2006,06,26,01,09,18.40
2006,06,26,01,10,18.40
2006,06,26,01,11,18.40
2006,06,26,01,12,18.30
2006,06,26,01,13,18.30
2006,06,26,01,14,18.30
2006,06,26,01,15,18.30
2006,06,26,01,16,18.20
2006,06,26,01,17,18.20
2006,06,26,01,18,18.20
2006,06,26,01,19,18.20
2006,06,26,01,20,18.20
2006,06,26,01,21,18.20
2006,06,26,01,22,18.10
2006,06,26,01,23,18.10
2006,06,26,01,24,18.10
2006,06,26,01,25,17.90
2006,06,26,01,26,17.90
2006,06,26,01,27,17.90
2006,06,26,01,28,17.90
2006,06,26,01,29,17.90
2006,06,26,01,30,17.90
2006,06,26,01,31,17.90
2006,06,26,01,32,17.90
2006,06,26,01,33,17.90
2006,06,26,01,34,17.90
2006,06,26,01,35,17.90
2006,06,26,01,36,17.90
2006,06,26,01,37,17.90
2006,06,26,01,38,17.80
2006,06,26,01,39,17.80
2006,06,26,01,40,17.80
2006,06,26,01,41,17.80
2006,06,26,01,42,17.80
2006,06,26,01,43,17.70
2006,06,26,01,44,17.70
2006,06,26,01,45,17.70
2006,06,26,01,46,17.70
2006,06,26,01,47,17.60
2006,06,26,01,48,17.60
2006,06,26,01,49,17.60
2006,06,26,01,50,17.60
2006,06,26,01,51,17.50
2006,06,26,01,52,17.50
2006,06,26,01,53,17.40
2006,06,26,01,54,17.40
2006,06,26,01,55,17.40
2006,06,26,01,56,17.30
2006,06,26,01,57,17.30
2006,06,26,01,58,17.30
2006,06,26,01,59,17.30
2006,06,26,02,00,17.30
2006,06,26,02,01,17.20
2006,06,26,02,02,17.20
2006,06,26,02,03,17.20
2006,06,26,02,04,17.10
2006,06,26,02,05,17.10
2006,06,26,02,06,17.10
2006,06,26,02,07,17.00
2006,06,26,02,08,17.00
2006,06,26,02,09,17.00
2006,06,26,02,10,17.00
2006,06,26,02,11,17.00
2006,06,26,02,12,17.00
2006,06,26,02,13,16.90
2006,06,26,02,14,16.90
2006,06,26,02,15,16.90
2006,06,26,02,16,16.90
2006,06,26,02,17,16.90
2006,06,26,02,18,16.90
2006,06,26,02,19,16.90
2006,06,26,02,20,16.80
2006,06,26,02,21,16.80
2006,06,26,02,22,16.70
2006,06,26,02,23,16.70
2006,06,26,02,24,16.70
2006,06,26,02,25,16.70
2006,06,26,02,26,16.70
2006,06,26,02,27,16.70
2006,06,26,02,28,16.70
2006,06,26,02,29,16.70
2006,06,26,02,30,16.60
2006,06,26,02,31,16.60
2006,06,26,02,32,16.60
2006,06,26,02,33,16.60
2006,06,26,02,34,16.60
2006,06,26,02,35,16.50
2006,06,26,02,36,16.40
2006,06,26,02,37,16.40
2006,06,26,02,38,16.40
2006,06,26,02,39,16.40
2006,06,26,02,40,16.40
2006,06,26,02,41,16.40
2006,06,26,02,42,16.40
2006,06,26,02,43,16.40
2006,06,26,02,44,16.40
2006,06,26,02,45,16.40
2006,06,26,02,46,16.40
2006,06,26,02,47,16.40
2006,06,26,02,48,16.40
2006,06,26,02,49,16.40
2006,06,26,02,50,16.40
2006,06,26,02,51,16.40
2006,06,26,02,52,16.40
2006,06,26,02,53,16.40
2006,06,26,02,54,16.40
2006,06,26,02,55,16.40
2006,06,26,02,56,16.40
2006,06,26,02,57,16.40
2006,06,26,02,58,16.40
2006,06,26,02,59,16.40
2006,06,26,03,00,16.40
2006,06,26,03,01,16.40
2006,06,26,03,02,16.30
2006,06,26,03,03,16.30
2006,06,26,03,04,16.30
2006,06,26,03,05,16.30
2006,06,26,03,06,16.30
2006,06,26,03,07,16.30
2006,06,26,03,08,16.30
2006,06,26,03,09,16.30
2006,06,26,03,10,16.30
2006,06,26,03,11,16.30
2006,06,26,03,12,16.30
2006,06,26,03,13,16.30
2006,06,26,03,14,16.30
2006,06,26,03,15,16.30
2006,06,26,03,16,16.30
2006,06,26,03,17,16.30
2006,06,26,03,18,16.30
2006,06,26,03,19,16.30
2006,06,26,03,20,16.30
2006,06,26,03,21,16.30
2006,06,26,03,22,16.20
2006,06,26,03,23,16.20
2006,06,26,03,24,16.20
2006,06,26,03,25,16.20
2006,06,26,03,26,16.20
2006,06,26,03,27,16.20
2006,06,26,03,28,16.10
2006,06,26,03,29,16.10
2006,06,26,03,30,16.10
2006,06,26,03,31,16.10
2006,06,26,03,32,16.10
2006,06,26,03,33,16.00
2006,06,26,03,34,15.90
2006,06,26,03,35,15.90
2006,06,26,03,36,15.90
2006,06,26,03,37,15.90
2006,06,26,03,38,15.80
2006,06,26,03,39,15.80
2006,06,26,03,40,15.80
2006,06,26,03,41,15.80
2006,06,26,03,42,15.80
2006,06,26,03,43,15.80
2006,06,26,03,44,15.80
2006,06,26,03,45,15.80
2006,06,26,03,46,15.80
2006,06,26,03,47,15.80
2006,06,26,03,48,15.70
2006,06,26,03,49,15.70
2006,06,26,03,50,15.70
2006,06,26,03,51,15.70
2006,06,26,03,52,15.70
2006,06,26,03,53,15.70
2006,06,26,03,54,15.60
2006,06,26,03,55,15.60
2006,06,26,03,56,15.60
2006,06,26,03,57,15.50
2006,06,26,03,58,15.50
2006,06,26,03,59,15.50
2006,06,26,04,00,15.50
2006,06,26,04,01,15.50
2006,06,26,04,02,15.50
2006,06,26,04,03,15.40
2006,06,26,04,04,15.40
2006,06,26,04,05,15.40
2006,06,26,04,06,15.40
2006,06,26,04,07,15.30
2006,06,26,04,08,15.30
2006,06,26,04,09,15.30
2006,06,26,04,10,15.30
2006,06,26,04,11,15.30
2006,06,26,04,12,15.30
2006,06,26,04,13,15.30
2006,06,26,04,14,15.30
2006,06,26,04,15,15.30
2006,06,26,04,16,15.20
2006,06,26,04,17,15.20
2006,06,26,04,18,15.20
2006,06,26,04,19,15.20
2006,06,26,04,20,15.20
2006,06,26,04,21,15.10
2006,06,26,04,22,15.10
2006,06,26,04,23,15.10
2006,06,26,04,24,15.10
2006,06,26,04,25,15.00
2006,06,26,04,26,15.00
2006,06,26,04,27,15.00
2006,06,26,04,28,15.00
2006,06,26,04,29,15.00
2006,06,26,04,30,15.00
2006,06,26,04,31,14.90
2006,06,26,04,32,14.90
2006,06,26,04,33,14.90
2006,06,26,04,34,14.90
2006,06,26,04,35,14.90
2006,06,26,04,36,14.90
2006,06,26,04,37,14.90
2006,06,26,04,38,14.80
2006,06,26,04,39,14.80
2006,06,26,04,40,14.80
2006,06,26,04,41,14.80
2006,06,26,04,42,14.80
2006,06,26,04,43,14.80
2006,06,26,04,44,14.80
2006,06,26,04,45,14.80
2006,06,26,04,46,14.80
2006,06,26,04,47,14.80
2006,06,26,04,48,14.80
2006,06,26,04,49,14.80
2006,06,26,04,50,14.80
2006,06,26,04,51,14.80
2006,06,26,04,52,14.80
2006,06,26,04,53,14.80
2006,06,26,04,54,14.90
2006,06,26,04,55,14.90
2006,06,26,04,56,14.90
2006,06,26,04,57,14.90
2006,06,26,04,58,14.80
2006,06,26,04,59,14.80
2006,06,26,05,00,14.80
2006,06,26,05,01,14.80
2006,06,26,05,02,14.80
2006,06,26,05,03,14.80
2006,06,26,05,04,14.80
2006,06,26,05,05,14.80
2006,06,26,05,06,14.80
2006,06,26,05,07,14.80
2006,06,26,05,08,14.80
2006,06,26,05,09,14.80
2006,06,26,05,10,14.70
2006,06,26,05,11,14.70
2006,06,26,05,12,14.70
2006,06,26,05,13,14.80
2006,06,26,05,14,14.80
2006,06,26,05,15,14.70
2006,06,26,05,16,14.70
2006,06,26,05,17,14.70
2006,06,26,05,18,14.70
2006,06,26,05,19,14.70
2006,06,26,05,20,14.70
2006,06,26,05,21,14.70
2006,06,26,05,22,14.70
2006,06,26,05,23,14.70
2006,06,26,05,24,14.70
2006,06,26,05,25,14.70
2006,06,26,05,26,14.60
2006,06,26,05,27,14.60
2006,06,26,05,28,14.60
2006,06,26,05,29,14.50
2006,06,26,05,30,14.50
2006,06,26,05,31,14.40
2006,06,26,05,32,14.40
2006,06,26,05,33,14.40
2006,06,26,05,34,14.30
2006,06,26,05,35,14.30
2006,06,26,05,36,14.30
2006,06,26,05,37,14.30
2006,06,26,05,38,14.30
2006,06,26,05,39,14.40
2006,06,26,05,40,14.40
2006,06,26,05,41,14.40
2006,06,26,05,42,14.40
2006,06,26,05,43,14.40
2006,06,26,05,44,14.40
2006,06,26,05,45,14.40
2006,06,26,05,46,14.40
2006,06,26,05,47,14.40
2006,06,26,05,48,14.40
2006,06,26,05,49,14.40
2006,06,26,05,50,14.40
2006,06,26,05,51,14.40
2006,06,26,05,52,14.40
2006,06,26,05,53,14.50
2006,06,26,05,54,14.50
2006,06,26,05,55,14.50
2006,06,26,05,56,14.40
2006,06,26,05,57,14.40
2006,06,26,05,58,14.40
2006,06,26,05,59,14.40
2006,06,26,06,00,14.50
2006,06,26,06,01,14.50
2006,06,26,06,02,14.50
2006,06,26,06,03,14.50
2006,06,26,06,04,14.50
2006,06,26,06,05,14.50
2006,06,26,06,06,14.50
2006,06,26,06,07,14.50
2006,06,26,06,08,14.50
2006,06,26,06,09,14.50
2006,06,26,06,10,14.50
2006,06,26,06,11,14.60
2006,06,26,06,12,14.60
2006,06,26,06,13,14.60
2006,06,26,06,14,14.60
2006,06,26,06,15,14.60
2006,06,26,06,16,14.60
2006,06,26,06,17,14.60
2006,06,26,06,18,14.60
2006,06,26,06,19,14.60
2006,06,26,06,20,14.60
2006,06,26,06,21,14.60
2006,06,26,06,22,14.60
2006,06,26,06,23,14.60
2006,06,26,06,24,14.70
2006,06,26,06,25,14.70
2006,06,26,06,26,14.80
2006,06,26,06,27,14.80
2006,06,26,06,28,14.80
2006,06,26,06,29,14.80
2006,06,26,06,30,14.80
2006,06,26,06,31,14.80
2006,06,26,06,32,14.90
2006,06,26,06,33,14.90
2006,06,26,06,34,15.00
2006,06,26,06,35,15.00
2006,06,26,06,36,15.00
2006,06,26,06,37,15.10
2006,06,26,06,38,15.10
2006,06,26,06,39,15.20
2006,06,26,06,40,15.20
2006,06,26,06,41,15.30
2006,06,26,06,42,15.30
2006,06,26,06,43,15.30
2006,06,26,06,44,15.30
2006,06,26,06,45,15.30
2006,06,26,06,46,15.30
2006,06,26,06,47,15.30
2006,06,26,06,48,15.40
2006,06,26,06,49,15.40
2006,06,26,06,50,15.50
2006,06,26,06,51,15.50
2006,06,26,06,52,15.60
2006,06,26,06,53,15.60
2006,06,26,06,54,15.70
2006,06,26,06,55,15.80
2006,06,26,06,56,15.80
2006,06,26,06,57,15.90
2006,06,26,06,58,16.00
2006,06,26,06,59,16.10
2006,06,26,07,00,16.10
2006,06,26,07,01,16.10
2006,06,26,07,02,16.20
2006,06,26,07,03,16.30
2006,06,26,07,04,16.40
2006,06,26,07,05,16.40
2006,06,26,07,06,16.50
2006,06,26,07,07,16.60
2006,06,26,07,08,16.70
2006,06,26,07,09,16.70
2006,06,26,07,10,16.70
2006,06,26,07,11,16.80
2006,06,26,07,12,16.80
2006,06,26,07,13,16.90
2006,06,26,07,14,16.90
2006,06,26,07,15,17.00
2006,06,26,07,16,17.00
2006,06,26,07,17,17.10
2006,06,26,07,18,17.20
2006,06,26,07,19,17.30
2006,06,26,07,20,17.50
2006,06,26,07,21,17.60
2006,06,26,07,22,17.70
2006,06,26,07,23,17.80
2006,06,26,07,24,17.90
2006,06,26,07,25,18.10
2006,06,26,07,26,18.20
2006,06,26,07,27,18.20
2006,06,26,07,28,18.40
2006,06,26,07,29,18.50
2006,06,26,07,30,18.70
2006,06,26,07,31,18.90
2006,06,26,07,32,19.00
2006,06,26,07,33,19.20
2006,06,26,07,34,19.40
2006,06,26,07,35,19.50
2006,06,26,07,36,19.60
2006,06,26,07,37,19.70
2006,06,26,07,38,19.80
2006,06,26,07,39,19.90
2006,06,26,07,40,20.00
2006,06,26,07,41,20.10
2006,06,26,07,42,20.20
2006,06,26,07,43,20.20
2006,06,26,07,44,20.30
2006,06,26,07,45,20.40
2006,06,26,07,46,20.40
2006,06,26,07,47,20.50
2006,06,26,07,48,20.50
2006,06,26,07,49,20.60
2006,06,26,07,50,20.70
2006,06,26,07,51,20.70
2006,06,26,07,52,20.80
2006,06,26,07,53,20.90
2006,06,26,07,54,20.90
2006,06,26,07,55,21.00
2006,06,26,07,56,21.10
2006,06,26,07,57,21.20
2006,06,26,07,58,21.30
2006,06,26,07,59,21.40
2006,06,26,08,00,21.60
2006,06,26,08,01,21.80
2006,06,26,08,02,21.90
2006,06,26,08,03,22.00
2006,06,26,08,04,22.10
2006,06,26,08,05,22.10
2006,06,26,08,06,22.10
2006,06,26,08,07,22.00
2006,06,26,08,08,21.90
2006,06,26,08,09,21.70
2006,06,26,08,10,21.60
2006,06,26,08,11,21.70
2006,06,26,08,12,21.70
2006,06,26,08,13,21.70
2006,06,26,08,14,21.80
2006,06,26,08,15,21.80
2006,06,26,08,16,21.80
2006,06,26,08,17,21.80
2006,06,26,08,18,21.80
2006,06,26,08,19,21.80
2006,06,26,08,20,21.80
2006,06,26,08,21,21.90
2006,06,26,08,22,21.90
2006,06,26,08,23,21.90
2006,06,26,08,24,21.90
2006,06,26,08,25,21.90
2006,06,26,08,26,21.80
2006,06,26,08,27,21.80
2006,06,26,08,28,21.80
2006,06,26,08,29,21.90
2006,06,26,08,30,21.90
2006,06,26,08,31,22.00
2006,06,26,08,32,22.00
2006,06,26,08,33,22.00
2006,06,26,08,34,21.90
2006,06,26,08,35,22.00
2006,06,26,08,36,22.10
2006,06,26,08,37,22.20
2006,06,26,08,38,22.20
2006,06,26,08,39,22.20
2006,06,26,08,40,22.20
2006,06,26,08,41,22.20
2006,06,26,08,42,22.00
2006,06,26,08,43,21.90
2006,06,26,08,44,21.70
2006,06,26,08,45,21.60
2006,06,26,08,46,21.50
2006,06,26,08,47,21.30
2006,06,26,08,48,21.20
2006,06,26,08,49,21.10
2006,06,26,08,50,21.10
2006,06,26,08,51,21.10
2006,06,26,08,52,21.20
2006,06,26,08,53,21.30
2006,06,26,08,54,21.40
2006,06,26,08,55,21.40
2006,06,26,08,56,21.40
2006,06,26,08,57,21.40
2006,06,26,08,58,21.30
2006,06,26,08,59,21.30
2006,06,26,09,00,21.30
2006,06,26,09,01,21.30
2006,06,26,09,02,21.30
2006,06,26,09,03,21.20
2006,06,26,09,04,21.30
2006,06,26,09,05,21.30
2006,06,26,09,06,21.20
2006,06,26,09,07,21.20
2006,06,26,09,08,21.20
2006,06,26,09,09,21.20
2006,06,26,09,10,21.20
2006,06,26,09,11,21.20
2006,06,26,09,12,21.20
2006,06,26,09,13,21.30
2006,06,26,09,14,21.40
2006,06,26,09,15,21.50
2006,06,26,09,16,21.60
2006,06,26,09,17,21.60
2006,06,26,09,18,21.70
2006,06,26,09,19,21.80
2006,06,26,09,20,21.90
2006,06,26,09,21,22.10
2006,06,26,09,22,22.20
2006,06,26,09,23,22.30
2006,06,26,09,24,22.30
2006,06,26,09,25,22.40
2006,06,26,09,26,22.50
2006,06,26,09,27,22.60
2006,06,26,09,28,22.80
2006,06,26,09,29,23.00
2006,06,26,09,30,23.10
2006,06,26,09,31,23.20
2006,06,26,09,32,23.10
2006,06,26,09,33,23.00
2006,06,26,09,34,22.80
2006,06,26,09,35,22.80
2006,06,26,09,36,22.80
2006,06,26,09,37,22.90
2006,06,26,09,38,22.90
2006,06,26,09,39,22.80
2006,06,26,09,40,22.80
2006,06,26,09,41,22.90
2006,06,26,09,42,22.90
2006,06,26,09,43,22.90
2006,06,26,09,44,23.00
2006,06,26,09,45,23.10
2006,06,26,09,46,23.20
2006,06,26,09,47,23.10
2006,06,26,09,48,23.10
2006,06,26,09,49,23.00
2006,06,26,09,50,22.90
2006,06,26,09,51,22.90
2006,06,26,09,52,22.90
2006,06,26,09,53,22.90
2006,06,26,09,54,22.80
2006,06,26,09,55,22.80
2006,06,26,09,56,22.80
2006,06,26,09,57,22.80
2006,06,26,09,58,22.90
2006,06,26,09,59,22.90
2006,06,26,10,00,22.90
2006,06,26,10,01,22.80
2006,06,26,10,02,22.60
2006,06,26,10,03,22.60
2006,06,26,10,04,22.60
2006,06,26,10,05,22.50
2006,06,26,10,06,22.40
2006,06,26,10,07,22.40
2006,06,26,10,08,22.40
2006,06,26,10,09,22.60
2006,06,26,10,10,22.60
2006,06,26,10,11,22.70
2006,06,26,10,12,22.70
2006,06,26,10,13,22.80
2006,06,26,10,14,22.90
2006,06,26,10,15,23.00
2006,06,26,10,16,23.10
2006,06,26,10,17,23.30
2006,06,26,10,18,23.30
2006,06,26,10,19,23.40
2006,06,26,10,20,23.50
2006,06,26,10,21,23.40
2006,06,26,10,22,23.40
2006,06,26,10,23,23.50
2006,06,26,10,24,23.60
2006,06,26,10,25,23.60
2006,06,26,10,26,23.60
2006,06,26,10,27,23.60
2006,06,26,10,28,23.60
2006,06,26,10,29,23.60
2006,06,26,10,30,23.60
2006,06,26,10,31,23.70
2006,06,26,10,32,23.70
2006,06,26,10,33,23.70
2006,06,26,10,34,23.70
2006,06,26,10,35,23.80
2006,06,26,10,36,24.00
2006,06,26,10,37,24.10
2006,06,26,10,38,24.10
2006,06,26,10,39,24.10
2006,06,26,10,40,24.20
2006,06,26,10,41,24.40
2006,06,26,10,42,24.60
2006,06,26,10,43,24.80
2006,06,26,10,44,25.00
2006,06,26,10,45,25.20
2006,06,26,10,46,25.30
2006,06,26,10,47,25.40
2006,06,26,10,48,25.50
2006,06,26,10,49,25.60
2006,06,26,10,50,25.70
2006,06,26,10,51,25.80
2006,06,26,10,52,25.90
2006,06,26,10,53,25.90
2006,06,26,10,54,25.80
2006,06,26,10,55,25.50
2006,06,26,10,56,25.40
2006,06,26,10,57,25.30
2006,06,26,10,58,25.30
2006,06,26,10,59,25.40
2006,06,26,11,00,25.40
2006,06,26,11,01,25.60
2006,06,26,11,02,25.80
2006,06,26,11,03,26.00
2006,06,26,11,04,26.10
2006,06,26,11,05,26.10
2006,06,26,11,06,26.30
2006,06,26,11,07,26.40
2006,06,26,11,08,26.50
2006,06,26,11,09,26.70
2006,06,26,11,10,26.80
2006,06,26,11,11,27.00
2006,06,26,11,12,27.10
2006,06,26,11,13,27.20
2006,06,26,11,14,27.20
2006,06,26,11,15,27.10
2006,06,26,11,16,27.00
2006,06,26,11,17,26.90
2006,06,26,11,18,26.80
2006,06,26,11,19,26.70
2006,06,26,11,20,26.60
2006,06,26,11,21,26.60
2006,06,26,11,22,26.60
2006,06,26,11,23,26.40
2006,06,26,11,24,26.40
2006,06,26,11,25,26.50
2006,06,26,11,26,26.60
2006,06,26,11,27,26.50
2006,06,26,11,28,26.40
2006,06,26,11,29,26.40
2006,06,26,11,30,26.40
2006,06,26,11,31,26.50
2006,06,26,11,32,26.40
2006,06,26,11,33,26.20
2006,06,26,11,34,26.10
2006,06,26,11,35,26.00
2006,06,26,11,36,25.90
2006,06,26,11,37,25.90
2006,06,26,11,38,26.00
2006,06,26,11,39,26.00
2006,06,26,11,40,26.10
2006,06,26,11,41,26.10
2006,06,26,11,42,26.10
2006,06,26,11,43,26.10
2006,06,26,11,44,26.10
2006,06,26,11,45,26.20
2006,06,26,11,46,26.20
2006,06,26,11,47,26.20
2006,06,26,11,48,26.00
2006,06,26,11,49,25.90
2006,06,26,11,50,25.90
2006,06,26,11,51,25.90
2006,06,26,11,52,25.90
2006,06,26,11,53,25.90
2006,06,26,11,54,25.90
2006,06,26,11,55,25.80
2006,06,26,11,56,25.60
2006,06,26,11,57,25.60
2006,06,26,11,58,25.60
2006,06,26,11,59,25.60
2006,06,26,12,00,25.60
2006,06,26,12,01,25.70
2006,06,26,12,02,25.90
2006,06,26,12,03,26.10
2006,06,26,12,04,26.20
2006,06,26,12,05,26.30
2006,06,26,12,06,26.40
2006,06,26,12,07,26.40
2006,06,26,12,08,26.30
2006,06,26,12,09,26.40
2006,06,26,12,10,26.50
2006,06,26,12,11,26.60
2006,06,26,12,12,26.60
2006,06,26,12,13,26.80
2006,06,26,12,14,26.80
2006,06,26,12,15,26.80
2006,06,26,12,16,26.80
2006,06,26,12,17,26.80
2006,06,26,12,18,26.80
2006,06,26,12,19,26.80
2006,06,26,12,20,26.90
2006,06,26,12,21,26.90
2006,06,26,12,22,27.00
2006,06,26,12,23,27.10
2006,06,26,12,24,27.20
2006,06,26,12,25,27.30
2006,06,26,12,26,27.40
2006,06,26,12,27,27.60
2006,06,26,12,28,27.80
2006,06,26,12,29,27.80
2006,06,26,12,30,27.90
2006,06,26,12,31,27.90
2006,06,26,12,32,27.80
2006,06,26,12,33,27.70
2006,06,26,12,34,27.70
2006,06,26,12,35,27.50
2006,06,26,12,36,27.40
2006,06,26,12,37,27.40
2006,06,26,12,38,27.40
2006,06,26,12,39,27.50
2006,06,26,12,40,27.60
2006,06,26,12,41,27.60
2006,06,26,12,42,27.70
2006,06,26,12,43,27.70
2006,06,26,12,44,27.70
2006,06,26,12,45,27.60
2006,06,26,12,46,27.60
2006,06,26,12,47,27.50
2006,06,26,12,48,27.60
2006,06,26,12,49,27.60
2006,06,26,12,50,27.50
2006,06,26,12,51,27.60
2006,06,26,12,52,27.70
2006,06,26,12,53,27.70
2006,06,26,12,54,27.70
2006,06,26,12,55,27.50
2006,06,26,12,56,27.40
2006,06,26,12,57,27.50
2006,06,26,12,58,27.60
2006,06,26,12,59,27.60
2006,06,26,13,00,27.60
2006,06,26,13,01,27.70
2006,06,26,13,02,27.70
2006,06,26,13,03,27.80
2006,06,26,13,04,27.70
2006,06,26,13,05,27.60
2006,06,26,13,06,27.50
2006,06,26,13,07,27.40
2006,06,26,13,08,27.30
2006,06,26,13,09,27.20
2006,06,26,13,10,27.20
2006,06,26,13,11,27.10
2006,06,26,13,12,27.10
2006,06,26,13,13,27.20
2006,06,26,13,14,27.30
2006,06,26,13,15,27.40
2006,06,26,13,16,27.50
2006,06,26,13,17,27.70
2006,06,26,13,18,27.90
2006,06,26,13,19,27.90
2006,06,26,13,20,28.00
2006,06,26,13,21,28.00
2006,06,26,13,22,27.90
2006,06,26,13,23,27.90
2006,06,26,13,24,27.80
2006,06,26,13,25,27.80
2006,06,26,13,26,27.80
2006,06,26,13,27,27.80
2006,06,26,13,28,27.80
2006,06,26,13,29,27.90
2006,06,26,13,30,28.00
2006,06,26,13,31,27.90
2006,06,26,13,32,27.90
2006,06,26,13,33,27.80
2006,06,26,13,34,27.70
2006,06,26,13,35,27.80
2006,06,26,13,36,27.80
2006,06,26,13,37,27.80
2006,06,26,13,38,27.80
2006,06,26,13,39,27.90
2006,06,26,13,40,27.90
2006,06,26,13,41,28.00
2006,06,26,13,42,28.00
2006,06,26,13,43,27.90
2006,06,26,13,44,27.80
2006,06,26,13,45,27.70
2006,06,26,13,46,27.70
2006,06,26,13,47,27.70
2006,06,26,13,48,27.80
2006,06,26,13,49,27.80
2006,06,26,13,50,27.90
2006,06,26,13,51,28.00
2006,06,26,13,52,28.20
2006,06,26,13,53,28.40
2006,06,26,13,54,28.50
2006,06,26,13,55,28.60
2006,06,26,13,56,28.60
2006,06,26,13,57,28.70
2006,06,26,13,58,28.60
2006,06,26,13,59,28.30
2006,06,26,14,00,28.20
2006,06,26,14,01,28.10
2006,06,26,14,02,28.00
2006,06,26,14,03,27.80
2006,06,26,14,04,27.80
2006,06,26,14,05,27.70
2006,06,26,14,06,27.70
2006,06,26,14,07,27.70
2006,06,26,14,08,27.70
2006,06,26,14,09,27.60
2006,06,26,14,10,27.40
2006,06,26,14,11,27.40
2006,06,26,14,12,27.40
2006,06,26,14,13,27.40
2006,06,26,14,14,27.40
2006,06,26,14,15,27.30
2006,06,26,14,16,27.30
2006,06,26,14,17,27.30
2006,06,26,14,18,27.30
2006,06,26,14,19,27.30
2006,06,26,14,20,27.40
2006,06,26,14,21,27.50
2006,06,26,14,22,27.40
2006,06,26,14,23,27.30
2006,06,26,14,24,27.30
2006,06,26,14,25,27.30
2006,06,26,14,26,27.30
2006,06,26,14,27,27.30
2006,06,26,14,28,27.20
2006,06,26,14,29,27.20
2006,06,26,14,30,27.10
2006,06,26,14,31,27.00
2006,06,26,14,32,26.90
2006,06,26,14,33,26.90
2006,06,26,14,34,26.90
2006,06,26,14,35,26.70
2006,06,26,14,36,26.50
2006,06,26,14,37,26.40
2006,06,26,14,38,26.50
2006,06,26,14,39,26.60
2006,06,26,14,40,26.70
2006,06,26,14,41,26.80
2006,06,26,14,42,26.80
2006,06,26,14,43,26.90
2006,06,26,14,44,27.10
2006,06,26,14,45,27.10
2006,06,26,14,46,27.10
2006,06,26,14,47,27.20
2006,06,26,14,48,27.30
2006,06,26,14,49,27.30
2006,06,26,14,50,27.30
2006,06,26,14,51,27.40
2006,06,26,14,52,27.60
2006,06,26,14,53,27.80
2006,06,26,14,54,27.90
2006,06,26,14,55,27.90
2006,06,26,14,56,27.80
2006,06,26,14,57,27.70
2006,06,26,14,58,27.60
2006,06,26,14,59,27.60
2006,06,26,15,00,27.60
2006,06,26,15,01,27.70
2006,06,26,15,02,27.60
2006,06,26,15,03,27.60
2006,06,26,15,04,27.60
2006,06,26,15,05,27.60
2006,06,26,15,06,27.60
2006,06,26,15,07,27.70
2006,06,26,15,08,27.90
2006,06,26,15,09,28.10
2006,06,26,15,10,28.30
2006,06,26,15,11,28.40
2006,06,26,15,12,28.50
2006,06,26,15,13,28.40
2006,06,26,15,14,28.60
2006,06,26,15,15,28.50
2006,06,26,15,16,28.40
2006,06,26,15,17,28.40
2006,06,26,15,18,28.40
2006,06,26,15,19,28.40
2006,06,26,15,20,28.30
2006,06,26,15,21,28.40
2006,06,26,15,22,28.20
2006,06,26,15,23,28.10
2006,06,26,15,24,28.10
2006,06,26,15,25,28.30
2006,06,26,15,26,28.30
2006,06,26,15,27,28.30
2006,06,26,15,28,28.30
2006,06,26,15,29,28.20
2006,06,26,15,30,28.20
2006,06,26,15,31,28.20
2006,06,26,15,32,28.20
2006,06,26,15,33,28.20
2006,06,26,15,34,28.20
2006,06,26,15,35,28.20
2006,06,26,15,36,28.20
2006,06,26,15,37,28.30
2006,06,26,15,38,28.30
2006,06,26,15,39,28.30
2006,06,26,15,40,28.20
2006,06,26,15,41,28.10
2006,06,26,15,42,28.20
2006,06,26,15,43,28.20
2006,06,26,15,44,28.20
2006,06,26,15,45,28.20
2006,06,26,15,46,28.20
2006,06,26,15,47,28.20
2006,06,26,15,48,28.10
2006,06,26,15,49,28.00
2006,06,26,15,50,28.00
2006,06,26,15,51,28.00
2006,06,26,15,52,27.90
2006,06,26,15,53,27.80
2006,06,26,15,54,27.80
2006,06,26,15,55,27.80
2006,06,26,15,56,27.90
2006,06,26,15,57,27.90
2006,06,26,15,58,27.90
2006,06,26,15,59,27.90
2006,06,26,16,00,27.90
2006,06,26,16,01,28.00
2006,06,26,16,02,28.10
2006,06,26,16,03,28.10
2006,06,26,16,04,28.10
2006,06,26,16,05,28.10
2006,06,26,16,06,28.10
2006,06,26,16,07,28.10
2006,06,26,16,08,28.00
2006,06,26,16,09,28.00
2006,06,26,16,10,28.10
2006,06,26,16,11,28.20
2006,06,26,16,12,28.20
2006,06,26,16,13,28.30
2006,06,26,16,14,28.30
2006,06,26,16,15,28.40
2006,06,26,16,16,28.50
2006,06,26,16,17,28.60
2006,06,26,16,18,28.70
2006,06,26,16,19,28.80
2006,06,26,16,20,28.90
2006,06,26,16,21,29.00
2006,06,26,16,22,29.10
2006,06,26,16,23,29.10
2006,06,26,16,24,29.00
2006,06,26,16,25,28.90
2006,06,26,16,26,29.00
2006,06,26,16,27,29.10
2006,06,26,16,28,29.10
2006,06,26,16,29,29.20
2006,06,26,16,30,29.30
2006,06,26,16,31,29.40
2006,06,26,16,32,29.30
2006,06,26,16,33,29.20
2006,06,26,16,34,29.10
2006,06,26,16,35,29.20
2006,06,26,16,36,29.20
2006,06,26,16,37,29.30
2006,06,26,16,38,29.30
2006,06,26,16,39,29.30
2006,06,26,16,40,29.40
2006,06,26,16,41,29.50
2006,06,26,16,42,29.60
2006,06,26,16,43,29.60
2006,06,26,16,44,29.60
2006,06,26,16,45,29.60
2006,06,26,16,46,29.60
2006,06,26,16,47,29.60
2006,06,26,16,48,29.50
2006,06,26,16,49,29.50
2006,06,26,16,50,29.50
2006,06,26,16,51,29.50
2006,06,26,16,52,29.50
2006,06,26,16,53,29.50
2006,06,26,16,54,29.40
2006,06,26,16,55,29.50
2006,06,26,16,56,29.50
2006,06,26,16,57,29.60
2006,06,26,16,58,29.60
2006,06,26,16,59,29.60
2006,06,26,17,00,29.60
2006,06,26,17,01,29.50
2006,06,26,17,02,29.50
2006,06,26,17,03,29.60
2006,06,26,17,04,29.60
2006,06,26,17,05,29.70
2006,06,26,17,06,29.70
2006,06,26,17,07,29.70
2006,06,26,17,08,29.50
2006,06,26,17,09,29.40
2006,06,26,17,10,29.30
2006,06,26,17,11,29.10
2006,06,26,17,12,29.10
2006,06,26,17,13,28.90
2006,06,26,17,14,28.90
2006,06,26,17,15,28.90
2006,06,26,17,16,28.90
2006,06,26,17,17,28.90
2006,06,26,17,18,28.90
2006,06,26,17,19,28.90